#timestamp,LO_Frequency,Hit,StdDev 
1533189615.1,286046999.8,P
1533189635.9,286046999.7,N
1533189655.7,286047000.3,N
1533189675.5,286046999.8,N
1533189695.4,286047002.4,Y
1533189715.2,286047002.3,P
1533189735.1,286047002.6,N
1533189736.0,286047002.6,N
1533189755.8,286047002.4,N
1533189775.7,286047002.6,N
1533189795.5,286047002.1,N
1533189815.3,286047002.0,N
1533189835.2,286047002.0,N
1533189855.9,286046999.8,N
1533189875.7,286047002.4,N
1533189895.6,286047002.6,N
1533189915.4,286047002.4,N
1533189935.2,286047002.2,N
1533189955.1,286047001.9,N
1533189956.0,286047001.9,N
1533189975.8,286047001.8,N
1533189995.7,286047001.9,N
1533190015.5,286047001.9,N
1533190035.3,286047001.6,N
1533190055.2,286047004.0,Y
1533190075.0,286047000.4,P
1533190075.9,286047000.4,N
1533190095.8,286047000.0,N
1533190115.6,286047002.7,Y
1533190135.4,286047000.4,P
1533190155.3,286047002.8,P
1533190175.1,286046999.7,N
1533190195.9,286047000.0,N
1533190215.7,286046999.9,N
1533190235.5,286046999.9,N
1533190255.4,286046999.7,N
1533190275.2,286047002.8,N
1533190295.1,286047002.8,N
1533190296.0,286047002.8,N
1533190315.8,286047002.5,N
1533190335.6,286047002.4,N
1533190355.5,286047002.8,N
1533190375.3,286047002.8,N
1533190395.2,286046999.7,N
1533190415.9,286047002.4,N
1533190435.7,286047002.8,N
1533190455.6,286047002.7,N
1533190475.4,286047002.0,N
1533190495.2,286047002.7,N
1533190515.1,286047002.5,N
1533190516.0,286047002.5,N
1533190535.8,286047002.5,N
1533190555.7,286047000.2,N
1533190575.5,286046999.8,N
1533190595.3,286047000.6,N
1533190615.2,286046999.9,N
1533190635.0,286047000.3,N
1533190635.9,286047000.3,N
1533190655.8,286047000.3,N
1533190675.6,286047000.0,N
1533190695.4,286047000.4,N
1533190715.3,286047000.3,N
1533190735.1,286046999.9,N
1533190755.8,286047002.4,N
1533190775.7,286047001.9,N
1533190795.5,286047001.7,N
1533190815.4,286047002.2,N
1533190835.2,286047002.4,N
1533190855.0,286047001.5,N
1533190855.9,286047001.5,N
1533190875.8,286047002.1,N
1533190895.6,286047001.8,N
1533190915.4,286047004.4,Y
1533190935.3,286047000.6,P
1533190955.1,286047000.9,N
1533190975.9,286046999.8,N
1533190995.7,286047002.8,Y
1533191015.5,286047000.5,P
1533191035.4,286047000.8,P
1533191055.2,286047000.8,P
1533191075.1,286047000.9,Y
1533191076.0,286047000.9,P
1533191095.8,286046998.1,P
1533191115.6,286046998.6,N
1533191135.5,286046998.8,N
1533191155.3,286046999.0,N
1533191175.1,286046998.9,N
1533191195.9,286046998.3,N
1533191215.8,286046999.3,N
1533191235.6,286046998.2,N
1533191255.5,286046998.3,N
1533191275.3,286046999.3,N
1533191295.2,286046999.3,N
1533191315.9,286046998.5,N
1533191335.7,286046998.1,N
1533191355.6,286046998.6,N
1533191375.4,286046999.3,N
1533191395.3,286046998.5,N
1533191415.1,286046998.3,N
1533191416.0,286046998.3,N
1533191435.8,286046999.1,N
1533191455.7,286046998.3,N
1533191475.5,286046998.3,N
1533191495.4,286046999.2,N
1533191515.2,286046998.7,N
1533191535.0,286046998.5,N
1533191535.9,286046998.5,N
1533191555.8,286046998.7,N
1533191575.6,286047000.8,N
1533191595.4,286046998.6,N
1533191615.3,286046998.2,N
1533191635.1,286046998.2,N
1533191655.9,286047001.1,N
1533191675.7,286046998.2,N
1533191695.5,286046998.2,N
1533191715.4,286046998.8,N
1533191735.2,286046999.1,N
1533191755.1,286046999.0,N
1533191756.0,286046999.0,N
1533191775.8,286046998.5,N
1533191795.6,286046998.1,N
1533191815.5,286046998.9,N
1533191835.3,286046998.3,N
1533191855.2,286046998.4,N
1533191875.9,286046998.4,N
1533191895.4,286046998.5,N
1533191915.2,286046998.9,N
1533191935.0,286046998.7,N
1533191935.9,286046998.7,N
1533191955.8,286046998.3,N
1533191975.6,286046999.1,N
1533191995.4,286046998.9,N
1533192015.3,286046998.7,N
1533192035.1,286047001.2,N
1533192055.9,286046998.8,N
1533192075.7,286047001.2,N
1533192095.5,286047000.7,N
1533192115.4,286047000.9,N
1533192135.2,286047001.2,N
1533192155.1,286047000.4,N
1533192156.0,286047000.4,N
1533192175.8,286047000.7,N
1533192195.6,286047001.2,N
1533192215.5,286046998.7,N
1533192235.3,286046998.6,N
1533192285.2,286047000.5,E
1533192295.1,286047000.5,N
1533192315.3,286046998.1,P
1533192335.1,286047000.7,N
1533192355.9,286046999.9,N
1533192375.7,286047000.9,N
1533192395.5,286047000.5,N
1533192415.4,286047000.7,N
1533192435.2,286046998.9,N
1533192455.0,286046998.8,N
1533192456.0,286046998.8,N
1533192475.8,286046998.5,N
1533192495.6,286046999.4,N
1533192515.5,286046998.9,N
1533192535.3,286046998.2,N
1533192555.1,286046998.8,N
1533192575.9,286046999.0,N
1533192595.7,286046999.0,N
1533192615.6,286046999.3,N
1533192635.4,286046996.5,Y
1533192655.2,286046996.7,P
1533192675.1,286046997.8,N
1533192676.0,286046997.8,N
1533192695.8,286046997.2,N
1533192715.7,286046995.3,Y
1533192735.5,286046998.8,P
1533192755.3,286046999.4,N
1533192775.2,286046999.2,N
1533192795.0,286046997.1,Y
1533192795.9,286046997.1,P
1533192815.8,286046999.2,N
1533192835.6,286046999.1,N
1533192855.4,286046997.0,Y
1533192875.3,286046999.3,P
1533192895.1,286046999.0,N
1533192915.8,286046996.6,P
1533192935.7,286046997.0,N
1533192955.5,286046997.1,N
1533192975.4,286046997.6,N
1533192995.2,286046997.9,N
1533193015.0,286046995.5,Y
1533193015.9,286046995.5,P
1533193035.8,286046999.2,N
1533193055.6,286046996.8,N
1533193075.4,286046997.8,N
1533193095.3,286046997.0,N
1533193115.1,286046997.1,N
1533193135.9,286046996.8,Y
1533193155.7,286047000.8,P
1533193175.5,286046998.2,N
1533193195.4,286046998.6,N
